FW2479 Weather Reports


time (UTC)temp
C
wind
direction
speed
KPH
gust
KPH
rain 1hr
cm
rain 24hr
cm
rain mn
cm
humidity
%
barometer
mb
20260507010903 14 0 0.0 4.8 0.00 0.05 0.05 93 1006.7
20260507010403 14 276 0.0 3.2 0.00 0.05 0.05 93 1006.7
20260507005908 14 161 0.0 0.0 0.00 0.05 0.05 93 1006.7
20260507005402 14 251 0.0 0.0 0.00 0.05 0.05 92 1006.7
20260507004905 14 251 0.0 0.0 0.00 0.05 0.05 92 1006.7
20260507004402 14 271 0.0 0.0 0.00 0.05 0.05 92 1006.8
20260507003904 13 234 0.0 1.6 0.00 0.05 0.05 92 1006.7
20260507003403 13 195 0.0 11.3 0.00 0.05 0.05 92 1006.6
20260507002903 13 235 0.0 11.3 0.00 0.05 0.05 92 1006.8
20260507002409 13 172 0.0 3.2 0.00 0.05 0.05 92 1006.5
20260507002404 13 195 0.0 4.8 0.00 0.05 0.05 92 1006.7
20260507001404 13 185 0.0 6.4 0.00 0.05 0.05 92 1006.5
20260507000904 13 207 0.0 6.4 0.00 0.05 0.05 92 1006.5
20260507000405 13 200 0.0 1.6 0.00 0.05 0.05 92 1006.5
20260506235901 13 245 0.0 1.6 0.00 0.05 0.05 92 1006.5
20260506235359 14 261 0.0 1.6 0.00 0.05 0.05 92 1006.3
20260506234852 14 220 0.0 1.6 0.00 0.05 0.05 92 1006.5
20260506234352 14 227 0.0 3.2 0.00 0.05 0.05 92 1006.5
20260506233854 14 275 0.0 3.2 0.00 0.05 0.05 92 1006.3
20260506233350 14 261 0.0 3.2 0.00 0.05 0.05 91 1006.3
20260506232849 14 227 0.0 1.6 0.00 0.05 0.05 91 1006.3
20260506232331 14 227 0.0 1.6 0.00 0.05 0.05 91 1006.4
20260506231832 14 179 0.0 1.6 0.00 0.05 0.05 91 1006.5
20260506231331 14 199 0.0 1.6 0.00 0.05 0.05 91 1006.3
20260506230832 14 193 0.0 4.8 0.00 0.05 0.05 91 1006.5
20260506230331 14 204 0.0 4.8 0.00 0.05 0.05 90 1006.4
20260506230056 15 195 0.0 1.6 0.03 0.05 0.05 90 1006.4
20260506225331 15 203 0.0 0.0 0.03 0.05 0.05 90 1006.4
20260506224833 15 214 0.0 0.0 0.03 0.05 0.05 91 1006.5
20260506224332 15 213 0.0 0.0 0.03 0.05 0.05 91 1006.4
20260506223832 15 216 0.0 0.0 0.03 0.05 0.05 91 1006.4
20260506223332 15 264 0.0 1.6 0.03 0.05 0.05 91 1006.3
20260506222833 15 207 0.0 3.2 0.03 0.05 0.05 91 1006.3
20260506222330 15 309 0.0 3.2 0.03 0.05 0.05 91 1006.3
20260506221831 15 212 0.0 6.4 0.03 0.05 0.05 91 1006.5
20260506221331 15 219 0.0 6.4 0.03 0.05 0.05 91 1006.4
20260506220831 15 183 0.0 4.8 0.03 0.05 0.05 91 1006.6
20260506220330 15 210 0.0 3.2 0.03 0.05 0.05 91 1006.7
20260506215831 -17 192 0.0 0.0 0.00 0.05 0.05 1006.8
20260506215331 15 248 0.0 1.6 0.00 0.05 0.05 90 1006.8
20260506214831 15 248 0.0 1.6 0.00 0.05 0.05 90 1006.8
20260506214331 15 165 0.0 0.0 0.03 0.05 0.05 90 1006.7
20260506213832 15 172 0.0 1.6 0.03 0.05 0.05 90 1006.8
20260506213331 15 217 0.0 1.6 0.03 0.05 0.05 90 1006.8
20260506212823 15 200 0.0 3.2 0.03 0.05 0.05 90 1006.9
20260506212324 15 192 0.0 3.2 0.03 0.05 0.05 90 1007.1
20260506211822 15 199 0.0 3.2 0.03 0.05 0.05 90 1007.1
20260506211321 15 282 0.0 3.2 0.03 0.05 0.05 90 1007.0
20260506211315 15 185 0.0 8.0 0.03 0.05 0.05 90 1007.2
20260506210319 15 193 0.0 8.0 0.03 0.05 0.05 90 1007.1
20260506205820 15 214 0.0 3.2 0.03 0.03 0.05 90 1007.1
20260506205540 15 209 0.0 3.2 0.05 0.03 0.05 89 1007.1
20260506204819 15 197 0.0 1.6 0.05 0.03 0.05 89 1007.2
20260506204320 15 259 0.0 0.0 0.03 0.03 0.03 88 1007.3
20260506203819 15 186 0.0 1.6 0.03 0.03 0.03 88 1007.4
20260506203318 15 178 0.0 1.6 0.03 0.03 0.03 88 1007.4
20260506202819 15 173 0.0 1.6 0.03 0.03 0.03 88 1007.4
20260506202806 15 169 0.0 8.0 0.03 0.03 0.03 87 1007.4
20260506201818 15 180 0.0 8.0 0.03 0.03 0.03 87 1007.5
20260506201317 16 209 0.0 0.0 0.03 0.03 0.03 87 1007.5
20260506200819 16 185 0.0 0.0 0.03 0.03 0.03 87 1007.4
20260506200803 16 161 0.0 1.6 0.03 0.03 0.03 87 1007.5
20260506195819 16 186 0.0 1.6 0.03 0.00 0.03 86 1007.5
20260506195317 16 228 0.0 4.8 0.00 0.00 0.00 86 1007.5
20260506195038 16 203 0.0 4.8 0.00 0.00 0.00 85 1007.4
20260506194317 16 171 0.0 1.6 0.00 0.00 0.00 84 1007.3
20260506193820 16 202 0.0 1.6 0.00 0.00 0.00 83 1007.3
20260506193317 16 214 0.0 11.3 0.00 0.00 0.00 82 1007.5
20260506192817 17 310 1.6 11.3 0.00 0.00 0.00 82 1007.8
20260506192542 17 186 0.0 1.6 0.00 0.00 0.00 81 1007.7
20260506191819 17 258 0.0 0.0 0.00 0.00 0.00 80 1007.7
20260506191535 17 274 0.0 14.5 0.00 0.00 0.00 79 1007.6
20260506190818 17 166 0.0 14.5 0.00 0.00 0.00 79 1007.7
20260506190316 18 262 0.0 6.4 0.00 0.00 0.00 77 1007.7
20260506190041 18 193 0.0 0.0 0.00 0.00 0.00 72 1007.8
20260506185314 19 180 0.0 0.0 0.00 0.00 0.00 72 1007.7
20260506184813 19 180 0.0 1.6 0.00 0.00 0.00 72 1007.7
20260506184312 19 227 0.0 1.6 0.00 0.00 0.00 71 1007.7
20260506183813 19 209 0.0 1.6 0.00 0.00 0.00 71 1007.7
20260506183313 20 161 0.0 1.6 0.00 0.00 0.00 70 1007.7
20260506182813 20 255 0.0 1.6 0.00 0.00 0.00 70 1007.9
20260506182311 20 142 0.0 3.2 0.00 0.00 0.00 68 1007.9
20260506181812 20 127 0.0 3.2 0.00 0.00 0.00 68 1008.0
20260506181312 20 269 0.0 4.8 0.00 0.00 0.00 68 1007.9
20260506181303 20 271 0.0 4.8 0.00 0.00 0.00 67 1007.8
20260506180311 20 217 0.0 0.0 0.00 0.00 0.00 66 1007.9
20260506175813 20 255 0.0 16.1 0.00 0.00 0.00 67 1008.0
20260506175311 21 182 3.2 16.1 0.00 0.00 0.00 66 1008.0
20260506174811 21 224 0.0 1.6 0.00 0.00 0.00 65 1008.2
20260506174310 21 183 0.0 8.0 0.00 0.00 0.00 66 1008.1
20260506173813 21 192 0.0 17.7 0.00 0.00 0.00 64 1008.0
20260506173310 21 268 3.2 17.7 0.00 0.00 0.00 64 1008.2
20260506172811 21 165 0.0 11.3 0.00 0.00 0.00 63 1008.3
20260506172311 21 207 0.0 6.4 0.00 0.00 0.00 63 1008.3
20260506171807 22 255 0.0 11.3 0.00 0.00 0.00 62 1008.5
20260506171753 22 275 1.6 11.3 0.00 0.00 0.00 63 1008.1
20260506170808 21 220 0.0 8.0 0.00 0.00 0.00 63 1008.2
20260506170309 21 281 1.6 8.0 0.00 0.00 0.00 63 1008.2
20260506165810 22 275 0.0 3.2 0.00 0.00 0.00 63 1008.3
20260506165309 22 176 0.0 8.0 0.00 0.00 0.00 63 1008.4
20260506165254 21 307 0.0 8.0 0.00 0.00 0.00 63 1008.4
20260506164308 21 140 0.0 0.0 0.00 0.00 0.00 64 1008.5
20260506164026 21 178 0.0 6.4 0.00 0.00 0.00 65 1008.6
20260506163528 21 178 0.0 6.4 0.00 0.00 0.00 64 1008.6
20260506162808 21 351 0.0 11.3 0.00 0.00 0.00 64 1008.7
20260506162307 21 345 0.0 11.3 0.00 0.00 0.00 63 1008.9
20260506161808 21 176 0.0 3.2 0.00 0.00 0.00 64 1008.8
20260506161528 21 196 0.0 1.6 0.00 0.00 0.00 62 1008.9
20260506160808 21 204 0.0 1.6 0.00 0.00 0.00 62 1009.0
20260506160307 22 252 0.0 3.2 0.00 0.00 0.00 63 1009.1
20260506160032 22 240 0.0 3.2 0.00 0.00 0.00 63 1009.1
20260506155532 22 220 0.0 8.0 0.00 0.00 0.00 64 1009.2
20260506155028 21 216 1.6 8.0 0.00 0.00 0.00 64 1009.1
20260506154307 21 197 0.0 4.8 0.00 0.00 0.00 64 1009.3
20260506153809 21 272 0.0 4.8 0.00 0.00 0.00 64 1009.4
20260506153306 21 207 0.0 4.8 0.00 0.00 0.00 63 1009.4
20260506152807 21 220 0.0 17.7 0.00 0.00 0.00 64 1009.4
20260506152306 21 292 0.0 17.7 0.00 0.00 0.00 64 1009.5
20260506151807 21 183 0.0 11.3 0.00 0.00 0.00 66 1009.5
20260506151532 21 309 0.0 4.8 0.00 0.00 0.00 67 1009.7
20260506150807 21 251 0.0 11.3 0.00 0.00 0.00 66 1009.6
20260506150306 21 165 0.0 11.3 0.00 0.00 0.00 66 1009.7
20260506150032 21 231 0.0 3.2 0.00 0.00 0.00 66 1009.8
20260506145524 21 258 0.0 3.2 0.00 0.00 0.00 67 1009.7
20260506144806 21 290 0.0 1.6 0.00 0.00 0.00 66 1009.7
20260506144303 21 169 0.0 4.8 0.00 0.00 0.00 67 1009.8
20260506144250 21 223 0.0 8.0 0.00 0.00 0.00 66 1009.7
20260506143302 21 241 0.0 8.0 0.00 0.00 0.00 67 1009.7
20260506142802 21 178 0.0 1.6 0.00 0.00 0.00 67 1009.7
20260506142305 21 275 0.0 8.0 0.00 0.00 0.00 67 1009.4
20260506141802 21 223 0.0 9.7 0.00 0.00 0.00 67 1009.5
20260506141304 20 202 0.0 9.7 0.00 0.00 0.00 67 1009.6
20260506140802 20 219 0.0 16.1 0.00 0.00 0.00 67 1009.8
20260506140303 20 248 1.6 16.1 0.00 0.00 0.00 68 1009.5
20260506140026 20 258 0.0 9.7 0.00 0.00 0.00 67 1009.6
20260506135305 20 131 0.0 1.6 0.00 0.00 0.00 68 1009.6
20260506135033 20 210 0.0 0.0 0.00 0.00 0.00 70 1009.4
20260506134302 20 210 0.0 0.0 0.00 0.00 0.00 70 1009.5
20260506133802 20 182 0.0 0.0 0.00 0.00 0.00 71 1009.6
20260506133302 20 223 0.0 1.6 0.00 0.00 0.00 71 1009.7
20260506132802 20 118 0.0 1.6 0.00 0.00 0.00 73 1010.0
20260506132301 19 203 0.0 1.6 0.00 0.00 0.00 73 1010.2
20260506132027 18 281 0.0 0.0 0.00 0.00 0.00 74 1010.1
20260506131520 18 171 0.0 0.0 0.00 0.00 0.00 75 1010.2
20260506130803 18 226 0.0 3.2 0.00 0.00 0.00 76 1010.3
20260506130301 18 230 0.0 3.2 0.00 0.00 0.00 76 1010.3
20260506125801 18 207 0.0 0.0 0.00 0.00 0.00 77 1010.2
20260506125300 18 193 0.0 1.6 0.00 0.00 0.00 78 1010.2
20260506124802 17 224 0.0 1.6 0.00 0.00 0.00 79 1010.3
20260506124301 17 175 0.0 0.0 0.00 0.00 0.00 79 1010.3
20260506123802 17 169 0.0 0.0 0.00 0.00 0.00 80 1010.2
20260506123300 17 195 0.0 1.6 0.00 0.00 0.00 80 1010.4
20260506122801 17 185 0.0 1.6 0.00 0.00 0.00 80 1010.3
20260506122523 16 237 0.0 0.0 0.00 0.00 0.00 81 1010.4
20260506121801 16 197 0.0 0.0 0.00 0.00 0.00 81 1010.3
20260506121527 16 210 0.0 0.0 0.00 0.00 0.00 82 1010.1
20260506120801 16 186 0.0 1.6 0.00 0.00 0.00 82 1010.1
20260506120522 16 207 0.0 1.6 0.00 0.00 0.00 83 1010.2
20260506120026 16 145 0.0 1.6 0.00 0.00 0.00 84 1010.4
20260506115300 15 197 0.0 0.0 0.00 0.00 0.00 84 1010.5
20260506114759 15 196 0.0 0.0 0.00 0.00 0.00 84 1010.5
20260506114259 15 197 0.0 0.0 0.00 0.00 0.00 84 1010.6
20260506113801 15 192 0.0 0.0 0.00 0.00 0.00 84 1010.7
20260506113258 15 193 0.0 3.2 0.00 0.00 0.00 84 1010.7
20260506112759 15 172 0.0 3.2 0.00 0.00 0.00 84 1010.8
20260506112258 15 213 0.0 1.6 0.00 0.00 0.00 84 1010.7
20260506111759 15 216 0.0 1.6 0.00 0.00 0.00 85 1010.8
20260506111258 15 189 0.0 0.0 0.00 0.00 0.00 84 1010.7
20260506110800 15 206 0.0 0.0 0.00 0.00 0.00 85 1010.6
20260506110258 15 250 0.0 0.0 0.00 0.00 0.00 85 1010.5
20260506105759 15 251 0.0 1.6 0.00 0.00 0.00 85 1010.5
20260506105518 15 185 0.0 1.6 0.00 0.00 0.00 85 1010.6
20260506104759 15 45 0.0 0.0 0.00 0.00 0.00 84 1010.5
20260506104513 15 178 0.0 1.6 0.00 0.00 0.00 84 1010.7
20260506103757 15 178 0.0 1.6 0.00 0.00 0.00 84 1010.5
20260506103256 15 158 0.0 1.6 0.00 0.00 0.00 84 1010.6
20260506102756 15 180 0.0 1.6 0.00 0.00 0.00 84 1010.7
20260506102256 15 196 0.0 3.2 0.00 0.00 0.00 84 1010.6
20260506101755 15 207 0.0 3.2 0.00 0.00 0.00 84 1010.5
20260506101255 15 202 0.0 0.0 0.00 0.00 0.00 84 1010.5
20260506101018 15 183 0.0 0.0 0.00 0.00 0.00 84 1010.5
20260506100256 15 183 0.0 0.0 0.00 0.00 0.00 84 1010.5
20260506095755 15 196 0.0 0.0 0.00 0.00 0.00 84 1010.4
20260506095256 15 207 0.0 0.0 0.00 0.00 0.00 84 1010.4
20260506094754 15 206 0.0 0.0 0.00 0.00 0.00 84 1010.4
20260506094255 15 206 0.0 0.0 0.00 0.00 0.00 83 1010.3
20260506093756 15 206 0.0 0.0 0.00 0.00 0.00 83 1010.3
20260506093254 15 203 0.0 0.0 0.00 0.00 0.00 83 1010.2
20260506092754 15 203 0.0 0.0 0.00 0.00 0.00 83 1010.4
20260506092521 15 220 0.0 0.0 0.00 0.00 0.00 83 1010.3
20260506091754 15 226 0.0 0.0 0.00 0.00 0.00 82 1010.4
20260506091516 15 235 0.0 0.0 0.00 0.00 0.00 82 1010.4
20260506090754 15 192 0.0 1.6 0.00 0.00 0.00 82 1010.4
20260506090232 15 179 0.0 1.6 0.00 0.00 0.00 82 1010.4
20260506085731 15 210 0.0 1.6 0.00 0.00 0.00 82 1010.4
20260506085230 15 192 0.0 0.0 0.00 0.00 0.00 82 1010.5
20260506084732 -17 0.0 0.0 0.00 0.00 0.00 1010.5
20260506084204 16 206 0.0 0.0 0.00 0.00 0.00 81 1010.6
20260506083923 16 206 0.0 0.0 0.00 0.00 0.00 81 1010.6
20260506083202 16 224 0.0 0.0 0.00 0.00 0.00 81 1010.6
20260506082702 16 224 0.0 0.0 0.00 0.00 0.00 81 1010.6
20260506082203 16 216 0.0 0.0 0.00 0.00 0.00 81 1010.6
20260506081704 16 216 0.0 0.0 0.00 0.00 0.00 80 1010.6
20260506081202 16 231 0.0 3.2 0.00 0.00 0.00 80 1010.6
20260506080702 16 231 0.0 6.4 0.00 0.00 0.00 80 1010.6
20260506080202 16 262 0.0 6.4 0.00 0.00 0.00 80 1010.5
20260506073202 16 185 0.0 1.6 0.00 0.00 0.00 80 1010.6
20260506072702 16 240 0.0 6.4 0.00 0.00 0.00 79 1010.5
20260506072202 16 228 0.0 6.4 0.00 0.00 0.00 79 1010.5
20260506071702 16 276 0.0 0.0 0.00 0.00 0.00 79 1010.6
20260506071422 16 296 0.0 0.0 0.00 0.00 0.00 79 1010.4
20260506070922 16 196 0.0 1.6 0.00 0.00 0.00 79 1010.4
20260506070204 16 323 0.0 1.6 0.00 0.00 0.00 79 1010.4
20260506062203 16 186 0.0 6.4 0.00 0.00 0.00 77 1010.4
20260506061703 16 200 0.0 6.4 0.00 0.00 0.00 77 1010.4
20260506061640 16 255 0.0 6.4 0.00 0.00 0.00 77 1010.4
20260506060704 16 185 0.0 0.0 0.00 0.00 0.00 77 1010.4
20260506060423 16 269 0.0 0.0 0.00 0.00 0.00 76 1010.4
20260506050419 17 196 0.0 0.0 0.00 0.00 0.00 72 1010.7
20260506044707 17 214 0.0 3.2 0.00 0.00 0.00 72 1011.0
20260506044203 17 224 0.0 8.0 0.00 0.00 0.00 72 1011.0
20260506043702 17 216 0.0 8.0 0.00 0.00 0.00 71 1010.9
20260506043202 17 155 0.0 1.6 0.00 0.00 0.00 71 1010.9
20260506042703 17 197 0.0 1.6 0.00 0.00 0.00 71 1010.9
20260506042201 17 203 0.0 0.0 0.00 0.00 0.00 71 1010.9
20260506041702 17 233 0.0 1.6 0.00 0.00 0.00 70 1010.9
20260506041202 17 233 0.0 3.2 0.00 0.00 0.00 70 1010.8
20260506040703 17 195 0.0 3.2 0.00 0.00 0.00 70 1010.8
20260506040203 17 203 0.0 1.6 0.00 0.00 0.00 70 1010.8
20260506035703 17 245 0.0 1.6 0.00 0.00 0.00 69 1010.7
20260506035204 17 245 0.0 8.0 0.00 0.00 0.00 69 1010.7
20260506034702 17 202 0.0 8.0 0.00 0.00 0.00 69 1010.7
20260506034203 17 190 0.0 1.6 0.00 0.00 0.00 69 1010.7
20260506033929 17 192 0.0 1.6 0.00 0.00 0.00 69 1010.7
20260506033204 17 188 0.0 3.2 0.00 0.00 0.00 69 1010.7
20260506032703 17 251 0.0 3.2 0.00 0.00 0.00 68 1010.8
20260506032202 17 193 0.0 3.2 0.00 0.00 0.00 68 1010.7
20260506031702 17 72 0.0 6.4 0.00 0.00 0.00 68 1010.5
20260506031202 17 188 0.0 8.0 0.00 0.00 0.00 68 1010.7
20260506030702 17 200 0.0 14.5 0.00 0.00 0.00 68 1010.7
20260506030643 17 247 0.0 14.5 0.00 0.00 0.00 68 1010.7
20260506025702 17 321 0.0 3.2 0.00 0.00 0.00 68 1010.6
20260506025202 17 196 0.0 3.2 0.00 0.00 0.00 69 1010.5
20260506024702 17 212 0.0 3.2 0.00 0.00 0.00 69 1010.6
20260506024204 17 250 0.0 3.2 0.00 0.00 0.00 69 1010.6
20260506023702 17 224 0.0 11.3 0.00 0.00 0.00 69 1010.6
20260506023201 17 307 0.0 11.3 0.00 0.00 0.00 69 1010.7
20260506022702 17 202 0.0 3.2 0.00 0.00 0.00 69 1010.6
20260506022426 17 197 0.0 3.2 0.00 0.00 0.00 69 1010.6
20260506021702 17 214 0.0 1.6 0.00 0.00 0.00 69 1010.8
20260506021203 17 188 0.0 0.0 0.00 0.00 0.00 69 1010.6
20260506020702 17 188 0.0 3.2 0.00 0.00 0.00 69 1010.7
20260506020202 17 221 0.0 3.2 0.00 0.00 0.00 69 1010.5
20260506015702 17 172 0.0 3.2 0.00 0.00 0.00 68 1010.6
20260506015202 17 274 0.0 3.2 0.00 0.00 0.00 68 1010.5
20260506014702 17 192 0.0 1.6 0.00 0.00 0.00 68 1010.6
20260506014202 17 320 0.0 1.6 0.00 0.00 0.00 68 1010.7
20260506013702 17 276 0.0 3.2 0.00 0.00 0.00 68 1010.7
20260506013425 17 340 0.0 3.2 0.00 0.00 0.00 67 1010.6
20260506012702 17 193 0.0 1.6 0.00 0.00 0.00 67 1010.5
20260506012204 17 338 0.0 4.8 0.00 0.00 0.00 67 1010.5
20260506011635 17 183 0.0 4.8 0.00 0.00 0.00 66 1010.4
20260506011133 17 203 0.0 1.6 0.00 0.00 0.00 66 1010.3